Other Surface Observations
Issued by NWS

Current Version | Previous Version | Text Only | Print | Product List | Glossary On
Versions: 1 2 3 4 5 6 7 8 9 10 11 12 13 14 15 16 17 18 19 20 21 22 23 24 25 26 27 28 29 30 31 32 33 34 35 36 37 38 39 40 41 42 43 44 45 46 47 48 49 50
068
SXUS52 KTAE 061518
OSOTAE
OSOTAE
North Florida/South Alabama/Southwest Georgia Weather Roundup
National Weather Service Tallahassee Florida
1000 AM EST SAT FEB 06 2016

Note: "fair" indicates few or no clouds below 12,000 feet with no
significant weather and/or obstructions to visibility.

!FLZ017-115-028-034-025-061600
...North Florida...

CITY           SKY/WX    TMP DP  RH WIND       PRES   REMARKS
TALLAHASSEE    CLOUDY    48  28  46 CALM      30.31R
APALACHICOLA   CLOUDY    48  34  58 NE8       30.32R WCI  44
PERRY          PTSUNNY   49  32  52 NE7       30.30S
CROSS CITY       N/A     51  36  56 E12       30.27S
JACKSONVILLE   PTSUNNY   53  43  68 NE17G28   30.30R
$$

!FLZ112-006-005-002-011-061600
...Florida Panhandle...

CITY           SKY/WX    TMP DP  RH WIND       PRES   REMARKS
MARIANNA       PTSUNNY   39  33  79 N3        30.36R
BONIFAY        FAIR      47  29  49 CALM      30.37R
PANAMA CITY NW FAIR      47  30  51 N5        30.35R WCI  45
TYNDALL AFB    MOSUNNY   43  32  65 VRB7      30.34R WCI  39
TYND DRONE APT FAIR      44  35  72 MISG      30.34R
DE FUNIAK SPR  FAIR      45  25  45 N3        30.37R
EGLIN AFB      MOSUNNY   46  25  43 NE5       30.35R WCI  43
DESTIN         SUNNY     48  29  47 NE7       30.36R WCI  45
HURLBURT       SUNNY     47  22  36 NE6       30.35R WCI  44
CRESTVIEW      SUNNY     47  25  42 CALM      30.38R
PENSACOLA      SUNNY     45  25  45 N6        30.37R WCI  42
$$

!ALZ063-066-061600
...South Alabama...

CITY           SKY/WX    TMP DP  RH WIND       PRES   REMARKS
DOTHAN         SUNNY     44  29  55 N3        30.39R
OZARK CAIRNS   SUNNY     44  25  47 VRB3      30.36R
FT RUCKER HELI SUNNY     46  27  47 CALM      30.36R
RUCKER HELI 3  FAIR      45  26  47 E3        30.37R
RUCKER HELI 2  NOT AVBL
FLORALA APT    SUNNY     44  26  49 CALM      30.38R
ANDALUSIA      SUNNY     50  24  36 SE3       30.37R
TROY           SUNNY     43  27  53 CALM      30.38R
EUFALA         FAIR      44  28  53 VRB3      30.36R
MOBILE         MOSUNNY   46  26  45 NE6       30.39R WCI  43
$$

!GAZ120>161-061600
...Southwest and South Central Georgia...

CITY           SKY/WX    TMP DP  RH WIND       PRES   REMARKS
THOMASVILLE    CLOUDY    45  32  61 NE8       30.32S WCI  40
BAINBRIDGE     CLOUDY    41  34  75 N3        30.35R
MOODY AFB      MOSUNNY   47  30  51 E9        30.30R WCI  43
VALDOSTA       CLOUDY    47  32  56 NE8       30.31R WCI  43
MOULTRIE       MOSUNNY   46  30  53 NE8       30.32R WCI  42
BLAKELY        PTSUNNY   45  34  65 CALM      30.36R
ALBANY         CLOUDY    44  30  57 E7        30.36R WCI  40
TIFTON         PTSUNNY   43  31  62 E6        30.32S WCI  40
FITZGERALD     FAIR      44  29  55 E6        30.35S WCI  41
CORDELE        CLOUDY    46  29  51 E5        30.36R WCI  44
AMERICUS       CLOUDY    41  30  65 E5        30.37R WCI  38
HOMERVILLE     PTSUNNY   46  34  61 E6        30.32R WCI  43
$$

!GMZ750-755-770-775-061600
...Coastal and Buoy Obs...

STATION/POSITION TIME  TEMP    WIND        PRES    VSBY  WAVE
                       AIR SEA DIR/SP/G                  HT/PER
                 (UTC) (F)     (DEG/KT/KT) (MB)    (MI)  (FT/S)
KEATON BEACH     1500   48      50/  7/ 10 1025.6R
CEDAR KEY        1500   51      50/ 14/ 18 1024.5R
C TOWER          NOT AVBL
APALACHICOLA BUO 1450   56 69   30/ 14/ 17 1024.8F         5/ 6
PANAMA CITY BUOY 1450   56 70  360/  8/ 12 1026.5R         3/ 5
MOBILE BUOY      NOT AVBL
ORANGE BCH AL BU 1450   49 62   10/ 10/ 12 1027.6R         2/ 5
$$




USA.gov is the U.S. government's official web portal to all federal, state and local government web resources and services.